Theta_e
346 346 341 341 336 334 335 339 343 343 337 332 332 332 332 333 335 337 337 336 337 336 336 336 334 332 332 331 331 332 334 335 336 333 334 336 333 335 339 340 340 341 335
346 348 341 338 331 328 326 328 329 336 342 342 337 333 338 338 339 337 335 335 334 335 336 336 335 332 331 331 332 333 334 335 333 333 334 333 331 333 339 342 339 332 338
345 348 341 332 327 325 328 342 342 338 332 333 336 340 338 339 331 335 334 338 340 334 335 337 336 335 332 332 333 333 334 338 343 343 343 342 331 328 336 336 330 329 331
345 346 343 329 327 325 326 328 330 329 332 335 339 340 336 334 340 340 341 338 333 332 334 340 336 334 334 333 333 339 333 340 344 344 346 343 343 330 330 336 337 336 336
344 345 336 328 327 325 326 326 326 326 326 328 331 334 336 340 330 340 340 341 334 342 332 341 335 335 333 334 337 335 333 338 343 346 342 345 344 335 336 332 336 340 340
343 345 330 329 328 327 326 329 330 328 326 326 331 339 341 337 341 332 340 336 339 331 332 336 342 337 335 334 337 337 333 342 344 343 343 345 345 333 341 341 332 330 331
345 347 332 329 329 329 328 332 334 333 331 327 327 333 339 340 339 336 339 342 333 340 342 333 334 337 339 338 337 336 336 344 346 344 341 348 334 332 335 329 328 333 333
344 344 337 330 329 329 330 336 336 337 337 334 328 327 334 341 339 341 335 341 342 335 341 338 338 336 335 337 330 329 330 340 343 341 341 346 329 326 327 327 330 330 328
341 344 345 343 331 329 336 338 337 338 338 338 334 328 327 333 337 339 338 336 337 341 339 337 340 340 332 330 332 336 335 341 344 343 340 343 325 330 322 323 324 331 331
342 344 344 345 345 348 347 340 340 340 341 340 338 330 327 342 338 337 339 338 338 339 337 342 333 339 338 335 339 336 336 335 349 343 342 343 335 325 327 324 322 327 335
343 344 344 344 347 348 349 349 342 340 341 338 337 335 340 347 347 348 345 339 338 336 338 336 337 336 329 334 336 338 338 344 345 343 346 344 336 334 330 334 326 324 323
342 344 344 346 345 346 347 346 347 348 346 342 334 338 342 346 346 346 345 341 337 336 338 336 335 335 336 345 345 341 335 343 342 343 342 343 341 337 338 337 329 327 325
342 344 344 347 346 347 347 346 346 349 344 338 338 344 347 347 348 347 347 348 349 340 346 347 345 343 346 345 346 346 347 344 344 343 341 341 339 336 338 339 340 338 340
344 345 345 347 346 347 347 343 345 345 346 343 341 344 348 349 349 348 347 347 348 347 346 347 346 346 349 347 347 346 346 344 345 345 345 345 343 334 336 338 339 341 341
346 348 347 348 349 347 347 346 345 344 348 347 343 348 349 348 345 346 346 347 347 348 348 348 347 347 348 349 348 347 347 345 345 346 346 347 346 341 334 336 337 340 340
347 349 349 349 351 350 348 347 347 346 348 347 346 344 344 343 343 342 343 350 350 349 350 350 350 349 347 347 348 348 348 348 346 345 347 347 347 344 337 338 340 341 340
348 350 350 349 350 350 349 349 347 348 351 348 340 341 343 344 340 340 343 347 350 351 345 349 351 350 351 349 348 351 349 348 348 348 347 347 347 348 342 341 342 341 341
350 351 351 348 348 349 348 349 349 350 351 351 348 346 346 344 342 342 341 344 348 343 344 351 351 348 350 349 353 351 351 349 348 348 347 348 349 348 348 349 344 343 344
353 345 352 349 348 350 350 349 349 351 350 351 351 349 350 346 349 344 349 349 347 350 347 349 348 351 344 351 350 351 352 350 349 349 349 348 349 348 349 348 348 348 344
355 349 352 351 350 351 352 352 350 351 351 350 349 348 352 352 352 348 352 350 352 350 347 351 346 346 350 349 348 348 352 352 352 352 350 349 348 349 349 349 349 348 348
353 354 353 352 351 352 353 352 351 351 351 350 350 351 353 351 353 350 351 353 352 349 350 344 351 349 351 351 350 349 351 352 352 352 352 352 350 350 349 350 350 350 352
350 354 354 353 354 354 353 353 352 350 349 350 351 352 353 355 349 348 353 352 353 348 352 353 353 350 347 347 348 348 349 350 350 352 352 352 352 351 351 350 350 353 353
350 353 356 356 355 356 354 354 354 354 353 352 351 352 353 353 355 352 348 350 353 348 352 353 353 352 348 347 348 348 346 348 349 349 352 351 352 352 352 351 352 351 354
351 353 356 357 357 356 355 354 354 354 351 353 354 352 353 355 353 353 355 356 351 354 354 354 352 350 352 352 350 348 351 347 346 346 350 348 353 353 352 352 352 353 354
352 354 356 358 357 358 358 354 356 354 353 354 354 353 355 353 351 355 355 354 350 350 354 352 350 350 348 349 352 352 351 352 351 349 347 347 351 344 350 351 351 350 354
352 353 355 357 348 353 355 356 356 356 353 351 353 352 351 353 353 354 350 354 355 354 353 352 351 352 352 351 351 350 350 348 347 351 349 349 349 351 350 349 347 350 351
Wind_Speed
15 15 15 16 16 16 16 17 16 15 15 13 13 11 11 12 12 12 12 14 15 16 17 16 18 21 22 21 20 19 19 21 22 21 17 17 19 19 20 20 16 14 15
19 17 17 17 17 17 16 15 15 14 14 13 12 11 10 11 11 11 11 11 12 13 13 15 15 16 18 18 17 17 19 22 23 21 18 18 16 15 16 17 13 15 15
21 18 18 18 17 16 14 14 14 13 12 11 10 10 10 11 11 9 10 11 10 11 12 13 14 14 15 15 16 17 20 23 24 23 24 15 15 15 15 15 15 15 15
20 18 17 18 16 14 13 12 12 11 11 10 8 9 8 8 10 9 10 10 9 10 12 12 13 14 14 14 14 15 17 20 16 10 14 14 12 16 14 14 15 15 15
19 17 16 17 14 13 12 11 11 10 10 9 8 7 7 7 7 8 9 9 9 9 10 12 11 11 12 13 13 15 18 18 18 14 14 12 9 13 14 14 12 15 14
18 16 17 15 12 11 10 10 9 9 8 8 8 7 7 5 7 8 7 8 8 8 9 11 11 10 11 11 11 11 14 17 15 10 8 8 11 9 12 13 10 12 12
19 14 15 13 10 9 8 7 7 7 7 7 7 7 7 6 6 6 5 6 7 8 8 7 9 10 11 10 9 10 13 15 10 7 6 9 3 8 11 9 10 10 10
15 12 12 12 9 7 6 5 4 5 5 6 5 5 5 6 5 6 4 3 5 8 7 6 7 7 9 9 9 10 11 10 6 6 6 5 1 6 9 9 8 9 10
13 12 10 9 9 8 6 4 2 2 3 3 4 5 4 5 4 4 4 2 2 3 6 6 6 6 8 10 9 7 7 9 10 5 4 3 2 4 6 7 7 7 7
12 10 9 7 6 5 5 3 1 0 1 2 2 4 4 7 8 4 1 2 2 2 3 4 6 7 8 8 7 7 5 9 3 4 4 7 6 3 4 5 6 6 5
11 10 9 8 6 4 5 3 5 1 3 2 3 3 5 5 4 4 5 4 3 4 3 4 5 6 8 8 7 8 8 6 11 7 6 10 9 6 5 5 5 5 6
11 10 9 8 6 4 5 3 4 2 7 7 4 4 3 1 5 2 3 7 5 4 4 3 5 5 5 8 7 7 12 8 8 6 9 12 11 9 8 6 6 7 7
11 10 10 8 7 5 5 3 2 6 10 8 4 3 4 2 1 1 3 1 2 3 4 8 5 4 6 10 9 6 8 8 10 10 13 13 15 12 11 10 12 11 9
11 10 9 9 7 5 2 2 2 3 5 1 1 4 2 2 2 2 2 1 2 5 6 6 8 12 10 12 9 10 9 10 9 12 13 16 14 16 15 12 12 13 12
11 10 10 10 10 8 7 4 4 4 4 3 2 3 2 2 1 0 3 1 4 4 6 7 8 10 12 11 12 10 10 11 11 10 14 10 14 15 16 15 14 15 14
9 10 10 11 10 8 6 7 5 4 4 3 2 3 0 5 3 4 3 1 2 3 4 8 11 9 8 8 10 10 12 11 11 13 14 13 13 11 11 12 13 13 14
9 9 10 10 10 9 7 5 4 6 9 2 5 5 1 2 5 2 3 2 1 3 3 4 4 5 3 4 5 9 10 11 9 14 13 10 12 10 7 9 10 11 13
7 7 9 9 10 10 8 7 8 7 2 6 3 6 3 3 2 3 2 1 2 2 4 3 6 5 4 4 4 8 11 11 11 10 10 9 12 13 12 10 9 11 11
10 8 9 11 12 10 10 9 7 6 5 7 7 5 5 3 5 2 4 4 6 4 8 5 3 6 7 4 8 5 8 10 10 12 11 12 12 12 12 13 15 12 14
8 10 11 11 13 13 9 8 8 8 8 8 6 7 3 7 3 7 8 3 5 7 8 6 9 5 7 6 7 8 9 9 7 11 13 14 15 14 13 14 16 16 14
11 11 12 13 16 12 10 8 8 7 7 7 6 8 7 8 8 10 6 10 4 5 10 8 7 10 5 8 10 10 10 10 7 10 12 12 13 16 16 15 18 18 18
14 13 13 13 12 12 9 8 8 7 7 7 7 7 8 8 10 8 8 8 10 8 8 7 8 7 8 8 7 10 10 5 4 7 9 10 13 15 15 17 14 13 14
13 13 14 13 12 12 11 8 7 8 9 6 8 8 9 8 9 11 12 11 12 13 9 10 9 8 8 8 9 9 9 3 7 9 11 9 12 15 14 14 16 18 14
12 13 14 14 13 12 13 11 11 11 9 11 4 7 7 6 10 11 12 15 13 11 12 13 12 11 13 11 11 11 13 12 11 13 10 11 7 12 11 10 11 15 15
12 11 12 13 14 13 13 13 10 9 8 9 10 14 7 12 13 13 14 15 18 14 13 15 15 17 18 16 12 16 12 11 14 12 15 12 9 13 7 10 8 9 15
9 11 11 11 13 12 12 11 11 7 6 7 8 12 8 11 12 8 16 16 16 17 18 18 16 14 15 16 17 18 18 16 16 14 17 21 22 5 13 10 11 11 13
Wind_Direction
140 139 132 129 122 114 105 102 95 91 91 98 100 93 86 83 85 85 84 84 85 93 95 103 96 97 104 105 103 97 93 86 95 131 114 103 104 97 94 86 84 103 105
143 137 134 132 125 115 107 98 98 98 95 89 88 89 81 78 81 82 91 90 89 95 101 100 102 103 102 102 99 97 95 91 87 94 100 104 103 102 103 114 132 103 92
138 141 135 134 125 116 111 105 93 92 96 93 92 89 85 82 77 82 96 95 92 95 102 107 107 112 111 106 104 103 100 95 93 97 85 88 98 111 114 111 100 101 102
140 134 138 133 126 119 114 108 103 96 95 93 86 83 82 83 81 86 102 97 89 98 103 103 112 110 109 106 105 103 108 105 98 113 123 97 99 99 97 100 101 99 103
134 142 148 133 128 122 116 106 98 92 86 86 83 79 79 83 95 84 94 89 90 102 112 114 113 118 118 116 116 114 113 109 87 83 97 105 100 99 98 96 97 103 104
134 148 143 135 130 122 116 106 95 90 82 74 75 74 75 88 98 114 104 94 79 99 109 124 115 119 127 133 130 125 119 105 92 98 91 126 133 101 108 114 112 106 111
140 144 148 140 133 129 125 109 98 88 78 69 66 66 64 82 103 112 115 108 103 105 100 116 135 142 141 140 131 130 127 103 88 110 116 124 172 127 113 114 119 116 113
139 142 161 151 147 139 128 108 98 85 71 64 56 61 68 68 96 108 137 113 114 124 124 133 136 142 156 149 138 135 136 114 97 131 128 155 160 128 124 125 126 121 119
142 148 151 154 159 154 144 128 112 75 71 63 56 45 50 52 55 95 115 131 147 144 146 161 157 164 170 156 156 154 145 130 127 158 139 197 186 140 135 135 137 129 130
145 149 149 160 161 165 192 48 327 335 19 29 34 47 50 43 18 39 63 149 170 160 184 172 182 198 195 198 197 188 165 164 159 165 131 218 258 188 171 161 149 154 156
158 154 163 162 174 180 355 299 310 316 356 334 338 16 56 354 30 327 320 292 247 215 211 209 211 212 217 222 234 232 223 231 237 177 222 232 255 225 207 200 190 187 192
169 170 171 167 185 180 191 286 302 348 316 322 313 329 32 191 208 232 282 309 258 244 246 277 263 248 236 233 278 283 255 247 266 256 241 259 256 231 223 229 223 218 220
174 181 178 186 190 187 190 212 271 191 309 301 328 8 248 271 287 287 313 308 286 283 261 295 312 287 239 241 254 272 251 236 246 247 252 250 263 248 237 248 237 233 237
175 181 184 193 194 195 189 194 203 264 295 207 89 60 95 217 291 119 275 115 218 227 219 248 242 238 247 227 244 245 240 255 252 261 267 264 273 256 241 249 234 236 251
179 180 187 195 195 195 207 213 207 223 227 349 340 320 325 325 302 26 274 198 235 257 256 252 255 254 247 247 246 240 246 251 249 246 263 269 280 274 243 245 238 245 255
176 179 183 195 202 191 198 205 199 199 276 306 350 353 179 109 68 34 45 45 294 300 298 260 248 257 263 249 233 235 248 238 248 247 247 268 274 292 253 239 241 249 251
185 184 182 192 200 195 202 211 197 194 191 307 40 21 89 66 70 24 34 18 244 255 297 318 289 273 263 264 263 262 270 248 247 262 241 238 270 281 273 268 266 261 257
204 167 195 189 198 201 195 213 202 232 134 262 327 335 339 341 297 63 14 328 255 331 348 278 308 331 341 286 256 262 246 238 252 248 268 256 242 260 269 267 278 273 270
181 198 198 196 191 198 199 197 211 216 219 225 244 241 285 328 349 301 0 308 303 324 319 303 286 321 334 300 313 278 274 252 237 245 245 246 247 248 262 274 278 275 277
188 206 189 201 198 190 199 198 210 233 222 227 201 209 201 250 235 281 254 210 281 257 291 319 310 327 333 313 278 286 270 289 261 251 250 246 241 247 245 254 265 274 280
192 192 191 194 205 192 197 210 223 237 231 234 231 234 248 239 244 247 251 265 284 243 289 290 289 308 301 305 319 335 280 254 256 257 249 249 247 243 244 244 246 262 273
204 205 201 200 205 195 204 207 216 226 242 230 235 233 234 250 249 255 251 255 253 263 261 269 259 279 276 266 285 304 309 252 280 262 257 257 248 236 239 248 254 252 249
201 202 202 201 207 207 207 211 226 225 242 239 247 257 251 240 257 269 257 252 247 268 258 261 276 267 269 273 273 282 286 248 303 265 243 248 243 232 229 237 243 251 248
200 203 205 206 205 213 212 213 224 238 240 254 252 265 243 265 266 269 273 280 269 252 250 263 273 262 254 268 279 276 256 270 281 300 263 260 244 229 241 238 252 250 235
196 198 207 206 204 202 218 210 232 249 265 269 260 258 277 271 280 274 268 267 280 275 274 269 254 259 269 270 267 270 278 263 260 264 276 281 248 314 236 245 250 241 235
193 195 188 213 215 217 220 221 222 233 257 277 277 266 279 288 288 281 285 264 259 265 260 263 265 274 272 265 253 259 266 265 258 267 267 278 291 259 233 244 248 236 232